Total_Precipitation_Accumulation
0.00 0.00 0.00 0.00 0.00 0.00 0.00 0.00 0.00 0.00 0.00 0.00 0.00 0.00 0.00 0.00 0.00 0.00 0.00 0.00 0.00 0.00 0.01 0.01 0.02 0.03 0.06 0.08 0.10 0.12 0.12 0.12 0.12 0.11 0.11 0.11 0.12 0.12 0.13 0.14 0.14 0.15 0.16
0.00 0.00 0.00 0.00 0.00 0.00 0.00 0.00 0.00 0.00 0.00 0.00 0.00 0.00 0.00 0.00 0.00 0.00 0.00 0.00 0.00 0.00 0.00 0.01 0.02 0.04 0.07 0.09 0.12 0.13 0.13 0.13 0.13 0.13 0.13 0.13 0.13 0.13 0.14 0.15 0.16 0.16 0.17
0.00 0.00 0.00 0.00 0.00 0.00 0.00 0.00 0.00 0.00 0.00 0.00 0.00 0.00 0.00 0.00 0.00 0.00 0.00 0.00 0.00 0.00 0.00 0.01 0.02 0.04 0.05 0.08 0.12 0.15 0.16 0.16 0.15 0.14 0.15 0.16 0.16 0.16 0.17 0.18 0.19 0.20 0.21
0.01 0.00 0.01 0.01 0.01 0.01 0.01 0.01 0.01 0.01 0.00 0.00 0.00 0.00 0.00 0.00 0.00 0.00 0.00 0.00 0.00 0.00 0.00 0.01 0.02 0.03 0.05 0.07 0.10 0.15 0.18 0.18 0.17 0.16 0.17 0.18 0.19 0.21 0.22 0.24 0.25 0.25 0.26
0.02 0.02 0.02 0.02 0.03 0.03 0.02 0.02 0.02 0.02 0.01 0.01 0.01 0.01 0.01 0.01 0.01 0.00 0.00 0.00 0.01 0.01 0.01 0.01 0.01 0.02 0.03 0.05 0.08 0.14 0.21 0.23 0.21 0.19 0.18 0.20 0.21 0.24 0.27 0.31 0.34 0.35 0.36
0.08 0.06 0.04 0.05 0.06 0.05 0.05 0.05 0.04 0.04 0.03 0.04 0.04 0.02 0.01 0.01 0.01 0.01 0.01 0.01 0.01 0.01 0.01 0.01 0.02 0.02 0.02 0.04 0.06 0.10 0.18 0.24 0.26 0.24 0.23 0.23 0.24 0.26 0.29 0.33 0.37 0.40 0.44
0.19 0.13 0.11 0.11 0.10 0.08 0.08 0.08 0.08 0.07 0.05 0.05 0.05 0.03 0.01 0.01 0.01 0.01 0.02 0.02 0.02 0.02 0.02 0.03 0.03 0.03 0.03 0.05 0.06 0.08 0.12 0.21 0.28 0.30 0.30 0.29 0.29 0.32 0.35 0.39 0.42 0.44 0.48
0.27 0.21 0.18 0.16 0.14 0.12 0.11 0.11 0.11 0.09 0.08 0.09 0.10 0.11 0.06 0.02 0.01 0.02 0.02 0.03 0.03 0.03 0.03 0.04 0.05 0.05 0.05 0.06 0.06 0.07 0.10 0.16 0.26 0.37 0.44 0.44 0.43 0.44 0.48 0.53 0.56 0.60 0.63
0.33 0.28 0.25 0.24 0.23 0.22 0.19 0.18 0.19 0.17 0.16 0.16 0.17 0.21 0.16 0.07 0.04 0.03 0.03 0.04 0.05 0.04 0.05 0.05 0.06 0.06 0.07 0.08 0.09 0.11 0.15 0.19 0.27 0.40 0.53 0.59 0.60 0.62 0.67 0.72 0.78 0.83 0.84
0.34 0.34 0.33 0.31 0.29 0.29 0.26 0.30 0.34 0.33 0.30 0.23 0.21 0.20 0.22 0.20 0.19 0.12 0.06 0.06 0.06 0.06 0.06 0.06 0.07 0.08 0.09 0.11 0.14 0.18 0.24 0.29 0.37 0.48 0.60 0.72 0.81 0.90 0.98 1.03 1.08 1.11 1.08
0.27 0.30 0.33 0.32 0.30 0.31 0.34 0.38 0.39 0.41 0.39 0.35 0.33 0.32 0.32 0.27 0.25 0.25 0.16 0.08 0.09 0.09 0.10 0.10 0.11 0.13 0.15 0.18 0.22 0.27 0.36 0.42 0.51 0.62 0.75 0.92 1.06 1.19 1.29 1.36 1.42 1.44 1.41
0.19 0.21 0.26 0.28 0.31 0.34 0.37 0.40 0.43 0.47 0.49 0.49 0.46 0.42 0.42 0.39 0.33 0.37 0.34 0.24 0.22 0.20 0.20 0.22 0.24 0.26 0.28 0.30 0.32 0.39 0.45 0.52 0.62 0.73 0.86 1.05 1.19 1.28 1.36 1.48 1.59 1.64 1.66
0.14 0.17 0.21 0.25 0.30 0.34 0.40 0.44 0.45 0.45 0.50 0.52 0.51 0.48 0.47 0.44 0.44 0.49 0.54 0.48 0.42 0.36 0.37 0.38 0.38 0.39 0.39 0.41 0.42 0.49 0.49 0.54 0.59 0.67 0.80 1.01 1.08 1.04 1.04 1.13 1.26 1.38 1.47
0.15 0.19 0.22 0.24 0.27 0.31 0.34 0.37 0.38 0.39 0.43 0.44 0.45 0.46 0.45 0.42 0.43 0.46 0.55 0.64 0.64 0.55 0.50 0.49 0.49 0.50 0.50 0.48 0.48 0.52 0.47 0.54 0.57 0.61 0.70 0.79 0.77 0.69 0.67 0.72 0.83 0.95 1.07
0.13 0.14 0.17 0.19 0.21 0.23 0.25 0.28 0.29 0.29 0.31 0.33 0.34 0.36 0.36 0.35 0.36 0.38 0.44 0.58 0.74 0.73 0.60 0.52 0.53 0.54 0.54 0.52 0.52 0.48 0.42 0.48 0.50 0.52 0.56 0.59 0.57 0.55 0.56 0.59 0.66 0.76 0.84
0.09 0.11 0.12 0.14 0.16 0.17 0.17 0.18 0.19 0.19 0.21 0.22 0.24 0.25 0.27 0.28 0.30 0.34 0.39 0.47 0.60 0.70 0.65 0.50 0.44 0.45 0.47 0.45 0.45 0.39 0.35 0.42 0.43 0.43 0.44 0.46 0.48 0.51 0.54 0.55 0.58 0.63 0.71
0.06 0.07 0.09 0.11 0.11 0.11 0.11 0.12 0.12 0.13 0.15 0.16 0.17 0.20 0.22 0.24 0.26 0.29 0.33 0.38 0.44 0.51 0.53 0.44 0.37 0.35 0.35 0.33 0.32 0.29 0.25 0.25 0.25 0.29 0.32 0.34 0.35 0.40 0.44 0.49 0.51 0.54 0.60
0.05 0.06 0.06 0.06 0.06 0.06 0.07 0.08 0.09 0.11 0.13 0.15 0.16 0.19 0.21 0.23 0.27 0.29 0.31 0.33 0.33 0.35 0.38 0.36 0.28 0.24 0.21 0.20 0.19 0.17 0.15 0.15 0.14 0.17 0.21 0.23 0.26 0.31 0.35 0.38 0.40 0.45 0.49
0.05 0.05 0.04 0.04 0.05 0.05 0.06 0.07 0.09 0.11 0.13 0.16 0.19 0.23 0.25 0.27 0.29 0.29 0.28 0.26 0.25 0.23 0.25 0.28 0.21 0.15 0.13 0.11 0.11 0.10 0.09 0.09 0.09 0.11 0.13 0.15 0.20 0.25 0.29 0.32 0.34 0.34 0.35
0.06 0.06 0.05 0.05 0.06 0.08 0.09 0.11 0.13 0.16 0.19 0.21 0.24 0.27 0.29 0.29 0.28 0.25 0.22 0.19 0.19 0.18 0.18 0.20 0.21 0.17 0.13 0.09 0.10 0.10 0.09 0.07 0.07 0.06 0.07 0.08 0.11 0.14 0.16 0.18 0.22 0.23 0.25
0.06 0.07 0.08 0.09 0.11 0.12 0.16 0.19 0.22 0.26 0.30 0.32 0.32 0.30 0.27 0.25 0.20 0.17 0.16 0.15 0.15 0.17 0.23 0.27 0.25 0.19 0.13 0.11 0.10 0.09 0.11 0.09 0.06 0.04 0.04 0.03 0.04 0.05 0.06 0.09 0.15 0.20 0.26
0.10 0.12 0.15 0.19 0.25 0.29 0.36 0.35 0.32 0.31 0.30 0.27 0.24 0.21 0.19 0.17 0.14 0.13 0.13 0.13 0.18 0.26 0.33 0.35 0.29 0.20 0.10 0.06 0.08 0.13 0.18 0.22 0.15 0.04 0.06 0.04 0.03 0.04 0.07 0.12 0.19 0.26 0.33
0.22 0.26 0.30 0.35 0.38 0.40 0.38 0.29 0.24 0.21 0.22 0.21 0.17 0.13 0.10 0.08 0.07 0.05 0.06 0.11 0.16 0.21 0.24 0.23 0.18 0.11 0.10 0.12 0.23 0.33 0.29 0.28 0.17 0.05 0.06 0.07 0.04 0.06 0.08 0.14 0.25 0.29 0.36
0.37 0.40 0.41 0.43 0.42 0.40 0.34 0.25 0.19 0.15 0.13 0.10 0.08 0.06 0.05 0.04 0.04 0.07 0.13 0.18 0.12 0.08 0.07 0.07 0.10 0.13 0.16 0.16 0.23 0.33 0.30 0.22 0.10 0.04 0.07 0.15 0.10 0.10 0.09 0.13 0.23 0.26 0.29
0.46 0.45 0.42 0.38 0.31 0.25 0.20 0.14 0.10 0.07 0.05 0.04 0.03 0.03 0.05 0.05 0.06 0.19 0.27 0.23 0.10 0.03 0.02 0.07 0.12 0.12 0.10 0.09 0.11 0.27 0.38 0.40 0.25 0.07 0.06 0.12 0.10 0.11 0.15 0.17 0.22 0.26 0.27
0.35 0.31 0.26 0.22 0.17 0.13 0.09 0.06 0.04 0.03 0.03 0.02 0.03 0.03 0.03 0.05 0.14 0.26 0.24 0.19 0.10 0.06 0.09 0.06 0.03 0.01 0.01 0.02 0.08 0.23 0.57 0.84 0.59 0.29 0.09 0.22 0.24 0.30 0.42 0.22 0.21 0.24 0.25